This is the latest recevied weather packets stored in our database for station/object WD0REW. If no packets are shown the sender has not sent any weather packets the latest 10 day(s).
| Time | Temp. | Humidity | Pressure | Rain* | Wind** | Luminosity | Snow |
|---|---|---|---|---|---|---|---|
| 1777928190 | 26.67° C | 43% | 1006.5 hPa | 0 mm | - | 74 W/m² | - |
| 1777927887 | 26.67° C | 43% | 1006.6 hPa | 0 mm | - | 66 W/m² | - |
| 1777927585 | 26.67° C | 42% | 1006.4 hPa | 0 mm | - | 266 W/m² | - |
| 1777927284 | 26.67° C | 44% | 1006.6 hPa | 0 mm | - | 66 W/m² | - |
| 1777926983 | 27.22° C | 42% | 1006.6 hPa | 0 mm | - | 70 W/m² | - |
| 1777926680 | 27.22° C | 42% | 1006.9 hPa | 0 mm | - | 89 W/m² | - |
| 1777926380 | 27.22° C | 43% | 1007 hPa | 0 mm | - | 243 W/m² | - |
| 1777926077 | 27.78° C | 40% | 1007.1 hPa | 0 mm | - | 585 W/m² | - |
| 1777925774 | 27.22° C | 44% | 1007.1 hPa | 0 mm | - | 603 W/m² | - |
| 1777925472 | 27.78° C | 41% | 1007.3 hPa | 0 mm | - | 606 W/m² | - |
| 1777925169 | 27.78° C | 41% | 1007.3 hPa | 0 mm | - | 617 W/m² | - |
| 1777924865 | 27.78° C | 40% | 1007.1 hPa | 0 mm | - | 629 W/m² | - |
| 1777924561 | 27.78° C | 40% | 1007.3 hPa | 0 mm | - | 630 W/m² | - |
| 1777924257 | 27.22° C | 45% | 1007.4 hPa | 0 mm | - | 654 W/m² | - |
| 1777923954 | 27.78° C | 41% | 1007.6 hPa | 0 mm | - | 664 W/m² | - |
| 1777923650 | 27.22° C | 40% | 1007.5 hPa | 0 mm | - | 677 W/m² | - |
| 1777923346 | 27.22° C | 41% | 1007.5 hPa | 0 mm | - | 686 W/m² | - |
| 1777923045 | 26.67° C | 42% | 1007.6 hPa | 0 mm | - | 698 W/m² | - |
| 1777922743 | 27.22° C | 40% | 1007.7 hPa | 0 mm | - | 706 W/m² | - |
| 1777922441 | 27.22° C | 41% | 1007.6 hPa | 0 mm | - | 716 W/m² | - |
| 1777922138 | 27.22° C | 41% | 1007.8 hPa | 0 mm | - | 725 W/m² | - |
| 1777921834 | 27.22° C | 41% | 1007.7 hPa | 0 mm | - | 732 W/m² | - |
| 1777921531 | 27.22° C | 45% | 1007.7 hPa | 0 mm | - | 744 W/m² | - |
| 1777921227 | 27.22° C | 41% | 1007.6 hPa | 0 mm | - | 755 W/m² | - |
| 1777920924 | 27.22° C | 41% | 1007.7 hPa | 0 mm | - | 761 W/m² | - |
* Rain latest hour (hover to see other rain measurements)
** Current wind speed in m/s (hover to see current wind gust speed)